{"data":{"norad_id":44941,"intl_designator":"2020-001AD","name":"STARLINK-1094","alt_names":[],"object_type":"PAYLOAD","status":"ACTIVE","operator":null,"country":"US","launch_date":"2020-01-07","launch_site_code":"AFETR","launch_vehicle":null,"mission":null,"orbit_class":"UNKNOWN","rcs_meters":null,"size_class":null,"mass_kg":null,"dimensions":null,"purposes":["comms"],"wikipedia_slug":null,"has_3d_model":false,"image_url":null,"decayed_at":null,"tle_current":{"epoch":"2026-05-25T03:49:25.724064Z","epoch_age_seconds":71323,"freshness":"FRESH","line1":"1 44941U 20001AD  26145.15932551  .00079066  00000+0  12714-2 0  9998","line2":"2 44941  53.1543 319.2748 0002764 277.5185  82.5511 15.52327931352014","mean_motion":15.52327931,"eccentricity":0.0002764,"inclination_deg":53.1543,"raan_deg":319.2748,"arg_perigee_deg":277.5185,"mean_anomaly_deg":82.5511,"bstar":0.0012714,"rev_number":35201,"period_min":92.763904536096,"perigee_km":408.05492185662,"apogee_km":411.80736592657,"semimajor_km":6788.0681438916,"source":"CELESTRAK","updated_at":"2026-05-25T13:38:16.375808Z"}}}